locationName,lineName,date,time,countIn,countOut
��Ƃ�̍L��,��������,2022/8/1,0:00,2,3
��Ƃ�̍L��,��������,2022/8/1,1:00,4,1
��Ƃ�̍L��,��������,2022/8/1,2:00,6,0
��Ƃ�̍L��,��������,2022/8/1,3:00,5,1
��Ƃ�̍L��,��������,2022/8/1,4:00,7,1
��Ƃ�̍L��,��������,2022/8/1,5:00,21,6
��Ƃ�̍L��,��������,2022/8/1,6:00,19,7
��Ƃ�̍L��,��������,2022/8/1,7:00,16,12
��Ƃ�̍L��,��������,2022/8/1,8:00,29,26
��Ƃ�̍L��,��������,2022/8/1,9:00,59,28
��Ƃ�̍L��,��������,2022/8/1,10:00,76,24
��Ƃ�̍L��,��������,2022/8/1,11:00,47,24
��Ƃ�̍L��,��������,2022/8/1,12:00,61,26
��Ƃ�̍L��,��������,2022/8/1,13:00,45,24
��Ƃ�̍L��,��������,2022/8/1,14:00,48,17
��Ƃ�̍L��,��������,2022/8/1,15:00,65,13
��Ƃ�̍L��,��������,2022/8/1,16:00,44,18
��Ƃ�̍L��,��������,2022/8/1,17:00,71,22
��Ƃ�̍L��,��������,2022/8/1,18:00,45,24
��Ƃ�̍L��,��������,2022/8/1,19:00,20,18
��Ƃ�̍L��,��������,2022/8/1,20:00,25,9
��Ƃ�̍L��,��������,2022/8/1,21:00,23,7
��Ƃ�̍L��,��������,2022/8/1,22:00,9,6
��Ƃ�̍L��,��������,2022/8/1,23:00,8,4
��Ƃ�̍L��,��������,2022/8/2,0:00,5,1
��Ƃ�̍L��,��������,2022/8/2,1:00,2,2
��Ƃ�̍L��,��������,2022/8/2,2:00,4,1
��Ƃ�̍L��,��������,2022/8/2,3:00,5,3
��Ƃ�̍L��,��������,2022/8/2,4:00,2,0
��Ƃ�̍L��,��������,2022/8/2,5:00,20,2
��Ƃ�̍L��,��������,2022/8/2,6:00,20,5
��Ƃ�̍L��,��������,2022/8/2,7:00,20,9
��Ƃ�̍L��,��������,2022/8/2,8:00,44,39
��Ƃ�̍L��,��������,2022/8/2,9:00,81,61
��Ƃ�̍L��,��������,2022/8/2,10:00,57,31
��Ƃ�̍L��,��������,2022/8/2,11:00,49,20
��Ƃ�̍L��,��������,2022/8/2,12:00,59,29
��Ƃ�̍L��,��������,2022/8/2,13:00,51,19
��Ƃ�̍L��,��������,2022/8/2,14:00,39,20
��Ƃ�̍L��,��������,2022/8/2,15:00,31,15
��Ƃ�̍L��,��������,2022/8/2,16:00,44,20
��Ƃ�̍L��,��������,2022/8/2,17:00,65,20
��Ƃ�̍L��,��������,2022/8/2,18:00,41,18
��Ƃ�̍L��,��������,2022/8/2,19:00,20,17
��Ƃ�̍L��,��������,2022/8/2,20:00,20,8
��Ƃ�̍L��,��������,2022/8/2,21:00,23,6
��Ƃ�̍L��,��������,2022/8/2,22:00,20,9
��Ƃ�̍L��,��������,2022/8/2,23:00,5,5
��Ƃ�̍L��,��������,2022/8/3,0:00,6,2
��Ƃ�̍L��,��������,2022/8/3,1:00,5,2
��Ƃ�̍L��,��������,2022/8/3,2:00,6,2
��Ƃ�̍L��,��������,2022/8/3,3:00,3,2
��Ƃ�̍L��,��������,2022/8/3,4:00,3,0
��Ƃ�̍L��,��������,2022/8/3,5:00,17,6
��Ƃ�̍L��,��������,2022/8/3,6:00,18,5
��Ƃ�̍L��,��������,2022/8/3,7:00,22,9
��Ƃ�̍L��,��������,2022/8/3,8:00,47,36
��Ƃ�̍L��,��������,2022/8/3,9:00,37,25
��Ƃ�̍L��,��������,2022/8/3,10:00,49,20
��Ƃ�̍L��,��������,2022/8/3,11:00,49,30
��Ƃ�̍L��,��������,2022/8/3,12:00,76,24
��Ƃ�̍L��,��������,2022/8/3,13:00,42,29
��Ƃ�̍L��,��������,2022/8/3,14:00,38,17
��Ƃ�̍L��,��������,2022/8/3,15:00,49,19
��Ƃ�̍L��,��������,2022/8/3,16:00,33,26
��Ƃ�̍L��,��������,2022/8/3,17:00,43,18
��Ƃ�̍L��,��������,2022/8/3,18:00,61,28
��Ƃ�̍L��,��������,2022/8/3,19:00,27,12
��Ƃ�̍L��,��������,2022/8/3,20:00,39,17
��Ƃ�̍L��,��������,2022/8/3,21:00,13,22
��Ƃ�̍L��,��������,2022/8/3,22:00,13,4
��Ƃ�̍L��,��������,2022/8/3,23:00,14,5
��Ƃ�̍L��,��������,2022/8/4,0:00,8,1
��Ƃ�̍L��,��������,2022/8/4,1:00,2,0
��Ƃ�̍L��,��������,2022/8/4,2:00,5,0
��Ƃ�̍L��,��������,2022/8/4,3:00,6,0
��Ƃ�̍L��,��������,2022/8/4,4:00,7,4
��Ƃ�̍L��,��������,2022/8/4,5:00,21,2
��Ƃ�̍L��,��������,2022/8/4,6:00,16,6
��Ƃ�̍L��,��������,2022/8/4,7:00,26,11
��Ƃ�̍L��,��������,2022/8/4,8:00,44,22
��Ƃ�̍L��,��������,2022/8/4,9:00,59,27
��Ƃ�̍L��,��������,2022/8/4,10:00,55,49
��Ƃ�̍L��,��������,2022/8/4,11:00,65,22
��Ƃ�̍L��,��������,2022/8/4,12:00,66,20
��Ƃ�̍L��,��������,2022/8/4,13:00,60,32
��Ƃ�̍L��,��������,2022/8/4,14:00,45,27
��Ƃ�̍L��,��������,2022/8/4,15:00,30,15
��Ƃ�̍L��,��������,2022/8/4,16:00,31,19
��Ƃ�̍L��,��������,2022/8/4,17:00,70,23
��Ƃ�̍L��,��������,2022/8/4,18:00,27,12
��Ƃ�̍L��,��������,2022/8/4,19:00,21,15
��Ƃ�̍L��,��������,2022/8/4,20:00,24,9
��Ƃ�̍L��,��������,2022/8/4,21:00,28,10
��Ƃ�̍L��,��������,2022/8/4,22:00,19,11
��Ƃ�̍L��,��������,2022/8/4,23:00,17,11
��Ƃ�̍L��,��������,2022/8/5,0:00,5,2
��Ƃ�̍L��,��������,2022/8/5,1:00,8,2
��Ƃ�̍L��,��������,2022/8/5,2:00,1,2
��Ƃ�̍L��,��������,2022/8/5,3:00,6,1
��Ƃ�̍L��,��������,2022/8/5,4:00,2,3
��Ƃ�̍L��,��������,2022/8/5,5:00,17,8
��Ƃ�̍L��,��������,2022/8/5,6:00,23,7
��Ƃ�̍L��,��������,2022/8/5,7:00,18,10
��Ƃ�̍L��,��������,2022/8/5,8:00,45,37
��Ƃ�̍L��,��������,2022/8/5,9:00,52,22
��Ƃ�̍L��,��������,2022/8/5,10:00,64,38
��Ƃ�̍L��,��������,2022/8/5,11:00,71,39
��Ƃ�̍L��,��������,2022/8/5,12:00,70,29
��Ƃ�̍L��,��������,2022/8/5,13:00,53,30
��Ƃ�̍L��,��������,2022/8/5,14:00,46,27
��Ƃ�̍L��,��������,2022/8/5,15:00,58,22
��Ƃ�̍L��,��������,2022/8/5,16:00,52,26
��Ƃ�̍L��,��������,2022/8/5,17:00,83,32
��Ƃ�̍L��,��������,2022/8/5,18:00,65,27
��Ƃ�̍L��,��������,2022/8/5,19:00,36,14
��Ƃ�̍L��,��������,2022/8/5,20:00,52,14
��Ƃ�̍L��,��������,2022/8/5,21:00,24,18
��Ƃ�̍L��,��������,2022/8/5,22:00,16,8
��Ƃ�̍L��,��������,2022/8/5,23:00,11,5
��Ƃ�̍L��,��������,2022/8/6,0:00,8,6
��Ƃ�̍L��,��������,2022/8/6,1:00,12,3
��Ƃ�̍L��,��������,2022/8/6,2:00,7,1
��Ƃ�̍L��,��������,2022/8/6,3:00,7,0
��Ƃ�̍L��,��������,2022/8/6,4:00,4,2
��Ƃ�̍L��,��������,2022/8/6,5:00,14,5
��Ƃ�̍L��,��������,2022/8/6,6:00,9,8
��Ƃ�̍L��,��������,2022/8/6,7:00,18,13
��Ƃ�̍L��,��������,2022/8/6,8:00,34,18
��Ƃ�̍L��,��������,2022/8/6,9:00,57,25
��Ƃ�̍L��,��������,2022/8/6,10:00,66,27
��Ƃ�̍L��,��������,2022/8/6,11:00,45,30
��Ƃ�̍L��,��������,2022/8/6,12:00,89,42
��Ƃ�̍L��,��������,2022/8/6,13:00,63,24
��Ƃ�̍L��,��������,2022/8/6,14:00,82,25
��Ƃ�̍L��,��������,2022/8/6,15:00,51,26
��Ƃ�̍L��,��������,2022/8/6,16:00,45,22
��Ƃ�̍L��,��������,2022/8/6,17:00,37,26
��Ƃ�̍L��,��������,2022/8/6,18:00,40,24
��Ƃ�̍L��,��������,2022/8/6,19:00,27,18
��Ƃ�̍L��,��������,2022/8/6,20:00,36,15
��Ƃ�̍L��,��������,2022/8/6,21:00,32,7
��Ƃ�̍L��,��������,2022/8/6,22:00,21,15
��Ƃ�̍L��,��������,2022/8/6,23:00,17,8
��Ƃ�̍L��,��������,2022/8/7,0:00,13,5
��Ƃ�̍L��,��������,2022/8/7,1:00,10,3
��Ƃ�̍L��,��������,2022/8/7,2:00,13,6
��Ƃ�̍L��,��������,2022/8/7,3:00,1,1
��Ƃ�̍L��,��������,2022/8/7,4:00,8,3
��Ƃ�̍L��,��������,2022/8/7,5:00,12,3
��Ƃ�̍L��,��������,2022/8/7,6:00,17,4
��Ƃ�̍L��,��������,2022/8/7,7:00,17,6
��Ƃ�̍L��,��������,2022/8/7,8:00,23,8
��Ƃ�̍L��,��������,2022/8/7,9:00,29,13
��Ƃ�̍L��,��������,2022/8/7,10:00,42,36
��Ƃ�̍L��,��������,2022/8/7,11:00,57,32
��Ƃ�̍L��,��������,2022/8/7,12:00,60,30
��Ƃ�̍L��,��������,2022/8/7,13:00,61,32
��Ƃ�̍L��,��������,2022/8/7,14:00,71,25
��Ƃ�̍L��,��������,2022/8/7,15:00,44,28
��Ƃ�̍L��,��������,2022/8/7,16:00,47,21
��Ƃ�̍L��,��������,2022/8/7,17:00,32,19
��Ƃ�̍L��,��������,2022/8/7,18:00,44,15
��Ƃ�̍L��,��������,2022/8/7,19:00,26,16
��Ƃ�̍L��,��������,2022/8/7,20:00,26,6
��Ƃ�̍L��,��������,2022/8/7,21:00,11,8
��Ƃ�̍L��,��������,2022/8/7,22:00,16,3
��Ƃ�̍L��,��������,2022/8/7,23:00,9,2
��Ƃ�̍L��,��������,2022/8/8,0:00,2,4
��Ƃ�̍L��,��������,2022/8/8,1:00,1,1
��Ƃ�̍L��,��������,2022/8/8,2:00,1,0
��Ƃ�̍L��,��������,2022/8/8,3:00,3,0
��Ƃ�̍L��,��������,2022/8/8,4:00,4,3
��Ƃ�̍L��,��������,2022/8/8,5:00,15,2
��Ƃ�̍L��,��������,2022/8/8,6:00,22,9
��Ƃ�̍L��,��������,2022/8/8,7:00,21,10
��Ƃ�̍L��,��������,2022/8/8,8:00,29,26
��Ƃ�̍L��,��������,2022/8/8,9:00,49,21
��Ƃ�̍L��,��������,2022/8/8,10:00,51,29
��Ƃ�̍L��,��������,2022/8/8,11:00,59,30
��Ƃ�̍L��,��������,2022/8/8,12:00,81,38
��Ƃ�̍L��,��������,2022/8/8,13:00,52,26
��Ƃ�̍L��,��������,2022/8/8,14:00,50,28
��Ƃ�̍L��,��������,2022/8/8,15:00,62,16
��Ƃ�̍L��,��������,2022/8/8,16:00,49,22
��Ƃ�̍L��,��������,2022/8/8,17:00,63,29
��Ƃ�̍L��,��������,2022/8/8,18:00,49,28
��Ƃ�̍L��,��������,2022/8/8,19:00,25,11
��Ƃ�̍L��,��������,2022/8/8,20:00,28,11
��Ƃ�̍L��,��������,2022/8/8,21:00,16,5
��Ƃ�̍L��,��������,2022/8/8,22:00,17,10
��Ƃ�̍L��,��������,2022/8/8,23:00,3,7
��Ƃ�̍L��,��������,2022/8/9,0:00,2,3
��Ƃ�̍L��,��������,2022/8/9,1:00,5,1
��Ƃ�̍L��,��������,2022/8/9,2:00,3,1
��Ƃ�̍L��,��������,2022/8/9,3:00,6,0
��Ƃ�̍L��,��������,2022/8/9,4:00,4,1
��Ƃ�̍L��,��������,2022/8/9,5:00,12,3
��Ƃ�̍L��,��������,2022/8/9,6:00,28,4
��Ƃ�̍L��,��������,2022/8/9,7:00,24,12
��Ƃ�̍L��,��������,2022/8/9,8:00,44,40
��Ƃ�̍L��,��������,2022/8/9,9:00,46,29
��Ƃ�̍L��,��������,2022/8/9,10:00,52,27
��Ƃ�̍L��,��������,2022/8/9,11:00,56,19
��Ƃ�̍L��,��������,2022/8/9,12:00,70,31
��Ƃ�̍L��,��������,2022/8/9,13:00,50,35
��Ƃ�̍L��,��������,2022/8/9,14:00,57,35
��Ƃ�̍L��,��������,2022/8/9,15:00,57,24
��Ƃ�̍L��,��������,2022/8/9,16:00,54,19
��Ƃ�̍L��,��������,2022/8/9,17:00,51,25
��Ƃ�̍L��,��������,2022/8/9,18:00,48,25
��Ƃ�̍L��,��������,2022/8/9,19:00,42,18
��Ƃ�̍L��,��������,2022/8/9,20:00,41,9
��Ƃ�̍L��,��������,2022/8/9,21:00,20,11
��Ƃ�̍L��,��������,2022/8/9,22:00,15,8
��Ƃ�̍L��,��������,2022/8/9,23:00,6,3
��Ƃ�̍L��,��������,2022/8/10,0:00,3,2
��Ƃ�̍L��,��������,2022/8/10,1:00,19,2
��Ƃ�̍L��,��������,2022/8/10,2:00,1,2
��Ƃ�̍L��,��������,2022/8/10,3:00,2,0
��Ƃ�̍L��,��������,2022/8/10,4:00,4,3
��Ƃ�̍L��,��������,2022/8/10,5:00,14,6
��Ƃ�̍L��,��������,2022/8/10,6:00,28,8
��Ƃ�̍L��,��������,2022/8/10,7:00,32,18
��Ƃ�̍L��,��������,2022/8/10,8:00,44,19
��Ƃ�̍L��,��������,2022/8/10,9:00,58,25
��Ƃ�̍L��,��������,2022/8/10,10:00,64,27
��Ƃ�̍L��,��������,2022/8/10,11:00,81,35
��Ƃ�̍L��,��������,2022/8/10,12:00,77,45
��Ƃ�̍L��,��������,2022/8/10,13:00,55,32
��Ƃ�̍L��,��������,2022/8/10,14:00,59,28
��Ƃ�̍L��,��������,2022/8/10,15:00,46,13
��Ƃ�̍L��,��������,2022/8/10,16:00,57,25
��Ƃ�̍L��,��������,2022/8/10,17:00,71,32
��Ƃ�̍L��,��������,2022/8/10,18:00,57,19
��Ƃ�̍L��,��������,2022/8/10,19:00,36,26
��Ƃ�̍L��,��������,2022/8/10,20:00,30,11
��Ƃ�̍L��,��������,2022/8/10,21:00,26,14
��Ƃ�̍L��,��������,2022/8/10,22:00,24,4
��Ƃ�̍L��,��������,2022/8/10,23:00,12,4
��Ƃ�̍L��,��������,2022/8/11,0:00,11,6
��Ƃ�̍L��,��������,2022/8/11,1:00,6,2
��Ƃ�̍L��,��������,2022/8/11,2:00,11,1
��Ƃ�̍L��,��������,2022/8/11,3:00,3,1
��Ƃ�̍L��,��������,2022/8/11,4:00,5,3
��Ƃ�̍L��,��������,2022/8/11,5:00,11,2
��Ƃ�̍L��,��������,2022/8/11,6:00,11,7
��Ƃ�̍L��,��������,2022/8/11,7:00,25,16
��Ƃ�̍L��,��������,2022/8/11,8:00,39,13
��Ƃ�̍L��,��������,2022/8/11,9:00,44,29
��Ƃ�̍L��,��������,2022/8/11,10:00,55,29
��Ƃ�̍L��,��������,2022/8/11,11:00,76,49
��Ƃ�̍L��,��������,2022/8/11,12:00,103,39
��Ƃ�̍L��,��������,2022/8/11,13:00,115,47
��Ƃ�̍L��,��������,2022/8/11,14:00,96,38
��Ƃ�̍L��,��������,2022/8/11,15:00,84,37
��Ƃ�̍L��,��������,2022/8/11,16:00,63,27
��Ƃ�̍L��,��������,2022/8/11,17:00,77,31
��Ƃ�̍L��,��������,2022/8/11,18:00,42,28
��Ƃ�̍L��,��������,2022/8/11,19:00,41,11
��Ƃ�̍L��,��������,2022/8/11,20:00,22,12
��Ƃ�̍L��,��������,2022/8/11,21:00,28,8
��Ƃ�̍L��,��������,2022/8/11,22:00,19,6
��Ƃ�̍L��,��������,2022/8/11,23:00,10,6
��Ƃ�̍L��,��������,2022/8/12,0:00,5,1
��Ƃ�̍L��,��������,2022/8/12,1:00,5,3
��Ƃ�̍L��,��������,2022/8/12,2:00,8,0
��Ƃ�̍L��,��������,2022/8/12,3:00,6,1
��Ƃ�̍L��,��������,2022/8/12,4:00,5,0
��Ƃ�̍L��,��������,2022/8/12,5:00,16,3
��Ƃ�̍L��,��������,2022/8/12,6:00,18,10
��Ƃ�̍L��,��������,2022/8/12,7:00,27,9
��Ƃ�̍L��,��������,2022/8/12,8:00,36,26
��Ƃ�̍L��,��������,2022/8/12,9:00,51,31
��Ƃ�̍L��,��������,2022/8/12,10:00,80,47
��Ƃ�̍L��,��������,2022/8/12,11:00,123,47
��Ƃ�̍L��,��������,2022/8/12,12:00,138,52
��Ƃ�̍L��,��������,2022/8/12,13:00,101,50
��Ƃ�̍L��,��������,2022/8/12,14:00,82,40
��Ƃ�̍L��,��������,2022/8/12,15:00,85,43
��Ƃ�̍L��,��������,2022/8/12,16:00,87,32
��Ƃ�̍L��,��������,2022/8/12,17:00,103,34
��Ƃ�̍L��,��������,2022/8/12,18:00,65,24
��Ƃ�̍L��,��������,2022/8/12,19:00,39,22
��Ƃ�̍L��,��������,2022/8/12,20:00,38,12
��Ƃ�̍L��,��������,2022/8/12,21:00,30,8
��Ƃ�̍L��,��������,2022/8/12,22:00,17,14
��Ƃ�̍L��,��������,2022/8/12,23:00,15,6
��Ƃ�̍L��,��������,2022/8/13,0:00,14,4
��Ƃ�̍L��,��������,2022/8/13,1:00,8,4
��Ƃ�̍L��,��������,2022/8/13,2:00,4,7
��Ƃ�̍L��,��������,2022/8/13,3:00,9,0
��Ƃ�̍L��,��������,2022/8/13,4:00,4,0
��Ƃ�̍L��,��������,2022/8/13,5:00,11,7
��Ƃ�̍L��,��������,2022/8/13,6:00,27,8
��Ƃ�̍L��,��������,2022/8/13,7:00,22,9
��Ƃ�̍L��,��������,2022/8/13,8:00,38,16
��Ƃ�̍L��,��������,2022/8/13,9:00,50,28
��Ƃ�̍L��,��������,2022/8/13,10:00,84,31
��Ƃ�̍L��,��������,2022/8/13,11:00,103,38
��Ƃ�̍L��,��������,2022/8/13,12:00,118,61
��Ƃ�̍L��,��������,2022/8/13,13:00,104,36
��Ƃ�̍L��,��������,2022/8/13,14:00,122,65
��Ƃ�̍L��,��������,2022/8/13,15:00,84,49
��Ƃ�̍L��,��������,2022/8/13,16:00,86,37
��Ƃ�̍L��,��������,2022/8/13,17:00,79,30
��Ƃ�̍L��,��������,2022/8/13,18:00,53,23
��Ƃ�̍L��,��������,2022/8/13,19:00,44,25
��Ƃ�̍L��,��������,2022/8/13,20:00,35,17
��Ƃ�̍L��,��������,2022/8/13,21:00,31,13
��Ƃ�̍L��,��������,2022/8/13,22:00,24,8
��Ƃ�̍L��,��������,2022/8/13,23:00,12,4
��Ƃ�̍L��,��������,2022/8/14,0:00,15,2
��Ƃ�̍L��,��������,2022/8/14,1:00,1,7
��Ƃ�̍L��,��������,2022/8/14,2:00,9,4
��Ƃ�̍L��,��������,2022/8/14,3:00,3,1
��Ƃ�̍L��,��������,2022/8/14,4:00,6,1
��Ƃ�̍L��,��������,2022/8/14,5:00,12,4
��Ƃ�̍L��,��������,2022/8/14,6:00,12,14
��Ƃ�̍L��,��������,2022/8/14,7:00,23,10
��Ƃ�̍L��,��������,2022/8/14,8:00,35,17
��Ƃ�̍L��,��������,2022/8/14,9:00,45,19
��Ƃ�̍L��,��������,2022/8/14,10:00,105,45
��Ƃ�̍L��,��������,2022/8/14,11:00,84,46
��Ƃ�̍L��,��������,2022/8/14,12:00,147,58
��Ƃ�̍L��,��������,2022/8/14,13:00,140,53
��Ƃ�̍L��,��������,2022/8/14,14:00,152,38
��Ƃ�̍L��,��������,2022/8/14,15:00,95,60
��Ƃ�̍L��,��������,2022/8/14,16:00,63,42
��Ƃ�̍L��,��������,2022/8/14,17:00,47,31
��Ƃ�̍L��,��������,2022/8/14,18:00,45,15
��Ƃ�̍L��,��������,2022/8/14,19:00,30,14
��Ƃ�̍L��,��������,2022/8/14,20:00,29,9
��Ƃ�̍L��,��������,2022/8/14,21:00,19,7
��Ƃ�̍L��,��������,2022/8/14,22:00,21,7
��Ƃ�̍L��,��������,2022/8/14,23:00,9,3
��Ƃ�̍L��,��������,2022/8/15,0:00,4,3
��Ƃ�̍L��,��������,2022/8/15,1:00,4,1
��Ƃ�̍L��,��������,2022/8/15,2:00,6,1
��Ƃ�̍L��,��������,2022/8/15,3:00,2,0
��Ƃ�̍L��,��������,2022/8/15,4:00,4,1
��Ƃ�̍L��,��������,2022/8/15,5:00,8,3
��Ƃ�̍L��,��������,2022/8/15,6:00,23,10
��Ƃ�̍L��,��������,2022/8/15,7:00,17,7
��Ƃ�̍L��,��������,2022/8/15,8:00,37,11
��Ƃ�̍L��,��������,2022/8/15,9:00,55,26
��Ƃ�̍L��,��������,2022/8/15,10:00,65,35
��Ƃ�̍L��,��������,2022/8/15,11:00,90,46
��Ƃ�̍L��,��������,2022/8/15,12:00,138,55
��Ƃ�̍L��,��������,2022/8/15,13:00,101,53
��Ƃ�̍L��,��������,2022/8/15,14:00,108,49
��Ƃ�̍L��,��������,2022/8/15,15:00,82,28
��Ƃ�̍L��,��������,2022/8/15,16:00,71,31
��Ƃ�̍L��,��������,2022/8/15,17:00,50,31
��Ƃ�̍L��,��������,2022/8/15,18:00,50,38
��Ƃ�̍L��,��������,2022/8/15,19:00,34,11
��Ƃ�̍L��,��������,2022/8/15,20:00,19,12
��Ƃ�̍L��,��������,2022/8/15,21:00,19,7
��Ƃ�̍L��,��������,2022/8/15,22:00,12,4
��Ƃ�̍L��,��������,2022/8/15,23:00,10,6
��Ƃ�̍L��,��������,2022/8/16,0:00,7,1
��Ƃ�̍L��,��������,2022/8/16,1:00,6,1
��Ƃ�̍L��,��������,2022/8/16,2:00,6,0
��Ƃ�̍L��,��������,2022/8/16,3:00,4,2
��Ƃ�̍L��,��������,2022/8/16,4:00,3,2
��Ƃ�̍L��,��������,2022/8/16,5:00,10,6
��Ƃ�̍L��,��������,2022/8/16,6:00,23,4
��Ƃ�̍L��,��������,2022/8/16,7:00,26,14
��Ƃ�̍L��,��������,2022/8/16,8:00,49,17
��Ƃ�̍L��,��������,2022/8/16,9:00,42,15
��Ƃ�̍L��,��������,2022/8/16,10:00,75,39
��Ƃ�̍L��,��������,2022/8/16,11:00,51,29
��Ƃ�̍L��,��������,2022/8/16,12:00,95,34
��Ƃ�̍L��,��������,2022/8/16,13:00,121,58
��Ƃ�̍L��,��������,2022/8/16,14:00,101,47
��Ƃ�̍L��,��������,2022/8/16,15:00,99,42
��Ƃ�̍L��,��������,2022/8/16,16:00,61,23
��Ƃ�̍L��,��������,2022/8/16,17:00,80,38
��Ƃ�̍L��,��������,2022/8/16,18:00,41,13
��Ƃ�̍L��,��������,2022/8/16,19:00,31,21
��Ƃ�̍L��,��������,2022/8/16,20:00,23,10
��Ƃ�̍L��,��������,2022/8/16,21:00,22,10
��Ƃ�̍L��,��������,2022/8/16,22:00,8,7
��Ƃ�̍L��,��������,2022/8/16,23:00,13,2
��Ƃ�̍L��,��������,2022/8/17,0:00,1,4
��Ƃ�̍L��,��������,2022/8/17,1:00,1,1
��Ƃ�̍L��,��������,2022/8/17,2:00,1,0
��Ƃ�̍L��,��������,2022/8/17,3:00,5,2
��Ƃ�̍L��,��������,2022/8/17,4:00,2,2
��Ƃ�̍L��,��������,2022/8/17,5:00,13,2
��Ƃ�̍L��,��������,2022/8/17,6:00,23,9
��Ƃ�̍L��,��������,2022/8/17,7:00,21,7
��Ƃ�̍L��,��������,2022/8/17,8:00,34,24
��Ƃ�̍L��,��������,2022/8/17,9:00,54,17
��Ƃ�̍L��,��������,2022/8/17,10:00,90,26
��Ƃ�̍L��,��������,2022/8/17,11:00,77,29
��Ƃ�̍L��,��������,2022/8/17,12:00,105,43
��Ƃ�̍L��,��������,2022/8/17,13:00,73,42
��Ƃ�̍L��,��������,2022/8/17,14:00,66,33
��Ƃ�̍L��,��������,2022/8/17,15:00,47,39
��Ƃ�̍L��,��������,2022/8/17,16:00,74,36
��Ƃ�̍L��,��������,2022/8/17,17:00,92,27
��Ƃ�̍L��,��������,2022/8/17,18:00,68,17
��Ƃ�̍L��,��������,2022/8/17,19:00,14,21
��Ƃ�̍L��,��������,2022/8/17,20:00,20,13
��Ƃ�̍L��,��������,2022/8/17,21:00,25,7
��Ƃ�̍L��,��������,2022/8/17,22:00,19,8
��Ƃ�̍L��,��������,2022/8/17,23:00,8,5
��Ƃ�̍L��,��������,2022/8/18,0:00,10,2
��Ƃ�̍L��,��������,2022/8/18,1:00,7,1
��Ƃ�̍L��,��������,2022/8/18,2:00,6,1
��Ƃ�̍L��,��������,2022/8/18,3:00,7,0
��Ƃ�̍L��,��������,2022/8/18,4:00,9,2
��Ƃ�̍L��,��������,2022/8/18,5:00,9,4
��Ƃ�̍L��,��������,2022/8/18,6:00,21,5
��Ƃ�̍L��,��������,2022/8/18,7:00,20,12
��Ƃ�̍L��,��������,2022/8/18,8:00,38,33
��Ƃ�̍L��,��������,2022/8/18,9:00,47,31
��Ƃ�̍L��,��������,2022/8/18,10:00,75,38
��Ƃ�̍L��,��������,2022/8/18,11:00,68,31
��Ƃ�̍L��,��������,2022/8/18,12:00,108,48
��Ƃ�̍L��,��������,2022/8/18,13:00,81,36
��Ƃ�̍L��,��������,2022/8/18,14:00,60,37
��Ƃ�̍L��,��������,2022/8/18,15:00,56,33
��Ƃ�̍L��,��������,2022/8/18,16:00,51,13
��Ƃ�̍L��,��������,2022/8/18,17:00,88,38
��Ƃ�̍L��,��������,2022/8/18,18:00,43,29
��Ƃ�̍L��,��������,2022/8/18,19:00,23,21
��Ƃ�̍L��,��������,2022/8/18,20:00,30,10
��Ƃ�̍L��,��������,2022/8/18,21:00,28,9
��Ƃ�̍L��,��������,2022/8/18,22:00,16,5
��Ƃ�̍L��,��������,2022/8/18,23:00,15,7
��Ƃ�̍L��,��������,2022/8/19,0:00,10,3
��Ƃ�̍L��,��������,2022/8/19,1:00,7,4
��Ƃ�̍L��,��������,2022/8/19,2:00,3,2
��Ƃ�̍L��,��������,2022/8/19,3:00,7,2
��Ƃ�̍L��,��������,2022/8/19,4:00,8,3
��Ƃ�̍L��,��������,2022/8/19,5:00,15,3
��Ƃ�̍L��,��������,2022/8/19,6:00,21,4
��Ƃ�̍L��,��������,2022/8/19,7:00,20,11
��Ƃ�̍L��,��������,2022/8/19,8:00,38,28
��Ƃ�̍L��,��������,2022/8/19,9:00,65,27
��Ƃ�̍L��,��������,2022/8/19,10:00,93,46
��Ƃ�̍L��,��������,2022/8/19,11:00,94,45
��Ƃ�̍L��,��������,2022/8/19,12:00,92,45
��Ƃ�̍L��,��������,2022/8/19,13:00,102,45
��Ƃ�̍L��,��������,2022/8/19,14:00,73,36
��Ƃ�̍L��,��������,2022/8/19,15:00,56,27
��Ƃ�̍L��,��������,2022/8/19,16:00,60,33
��Ƃ�̍L��,��������,2022/8/19,17:00,69,38
��Ƃ�̍L��,��������,2022/8/19,18:00,58,15
��Ƃ�̍L��,��������,2022/8/19,19:00,30,28
��Ƃ�̍L��,��������,2022/8/19,20:00,30,13
��Ƃ�̍L��,��������,2022/8/19,21:00,30,16
��Ƃ�̍L��,��������,2022/8/19,22:00,20,7
��Ƃ�̍L��,��������,2022/8/19,23:00,7,4
��Ƃ�̍L��,��������,2022/8/20,0:00,12,3
��Ƃ�̍L��,��������,2022/8/20,1:00,13,5
��Ƃ�̍L��,��������,2022/8/20,2:00,5,2
��Ƃ�̍L��,��������,2022/8/20,3:00,3,0
��Ƃ�̍L��,��������,2022/8/20,4:00,3,2
��Ƃ�̍L��,��������,2022/8/20,5:00,11,1
��Ƃ�̍L��,��������,2022/8/20,6:00,20,3
��Ƃ�̍L��,��������,2022/8/20,7:00,17,13
��Ƃ�̍L��,��������,2022/8/20,8:00,30,19
��Ƃ�̍L��,��������,2022/8/20,9:00,48,20
��Ƃ�̍L��,��������,2022/8/20,10:00,78,33
��Ƃ�̍L��,��������,2022/8/20,11:00,86,43
��Ƃ�̍L��,��������,2022/8/20,12:00,88,43
��Ƃ�̍L��,��������,2022/8/20,13:00,115,34
��Ƃ�̍L��,��������,2022/8/20,14:00,98,28
��Ƃ�̍L��,��������,2022/8/20,15:00,74,47
��Ƃ�̍L��,��������,2022/8/20,16:00,64,31
��Ƃ�̍L��,��������,2022/8/20,17:00,66,36
��Ƃ�̍L��,��������,2022/8/20,18:00,50,28
��Ƃ�̍L��,��������,2022/8/20,19:00,34,18
��Ƃ�̍L��,��������,2022/8/20,20:00,28,19
��Ƃ�̍L��,��������,2022/8/20,21:00,23,9
��Ƃ�̍L��,��������,2022/8/20,22:00,19,7
��Ƃ�̍L��,��������,2022/8/20,23:00,7,5
��Ƃ�̍L��,��������,2022/8/21,0:00,15,6
��Ƃ�̍L��,��������,2022/8/21,1:00,4,3
��Ƃ�̍L��,��������,2022/8/21,2:00,1,1
��Ƃ�̍L��,��������,2022/8/21,3:00,0,0
��Ƃ�̍L��,��������,2022/8/21,4:00,7,2
��Ƃ�̍L��,��������,2022/8/21,5:00,11,0
��Ƃ�̍L��,��������,2022/8/21,6:00,12,7
��Ƃ�̍L��,��������,2022/8/21,7:00,22,6
��Ƃ�̍L��,��������,2022/8/21,8:00,35,9
��Ƃ�̍L��,��������,2022/8/21,9:00,43,23
��Ƃ�̍L��,��������,2022/8/21,10:00,58,27
��Ƃ�̍L��,��������,2022/8/21,11:00,117,42
��Ƃ�̍L��,��������,2022/8/21,12:00,97,43
��Ƃ�̍L��,��������,2022/8/21,13:00,109,44
��Ƃ�̍L��,��������,2022/8/21,14:00,85,58
��Ƃ�̍L��,��������,2022/8/21,15:00,96,46
��Ƃ�̍L��,��������,2022/8/21,16:00,78,38
��Ƃ�̍L��,��������,2022/8/21,17:00,65,32
��Ƃ�̍L��,��������,2022/8/21,18:00,38,17
��Ƃ�̍L��,��������,2022/8/21,19:00,23,11
��Ƃ�̍L��,��������,2022/8/21,20:00,14,10
��Ƃ�̍L��,��������,2022/8/21,21:00,19,7
��Ƃ�̍L��,��������,2022/8/21,22:00,8,5
��Ƃ�̍L��,��������,2022/8/21,23:00,14,4
��Ƃ�̍L��,��������,2022/8/22,0:00,2,2
��Ƃ�̍L��,��������,2022/8/22,1:00,1,1
��Ƃ�̍L��,��������,2022/8/22,2:00,3,0
��Ƃ�̍L��,��������,2022/8/22,3:00,5,1
��Ƃ�̍L��,��������,2022/8/22,4:00,5,3
��Ƃ�̍L��,��������,2022/8/22,5:00,16,5
��Ƃ�̍L��,��������,2022/8/22,6:00,9,7
��Ƃ�̍L��,��������,2022/8/22,7:00,25,18
��Ƃ�̍L��,��������,2022/8/22,8:00,31,39
��Ƃ�̍L��,��������,2022/8/22,9:00,41,21
��Ƃ�̍L��,��������,2022/8/22,10:00,58,31
��Ƃ�̍L��,��������,2022/8/22,11:00,68,29
��Ƃ�̍L��,��������,2022/8/22,12:00,49,33
��Ƃ�̍L��,��������,2022/8/22,13:00,51,33
��Ƃ�̍L��,��������,2022/8/22,14:00,47,32
��Ƃ�̍L��,��������,2022/8/22,15:00,50,30
��Ƃ�̍L��,��������,2022/8/22,16:00,58,22
��Ƃ�̍L��,��������,2022/8/22,17:00,72,19
��Ƃ�̍L��,��������,2022/8/22,18:00,40,18
��Ƃ�̍L��,��������,2022/8/22,19:00,28,14
��Ƃ�̍L��,��������,2022/8/22,20:00,20,15
��Ƃ�̍L��,��������,2022/8/22,21:00,24,9
��Ƃ�̍L��,��������,2022/8/22,22:00,9,4
��Ƃ�̍L��,��������,2022/8/22,23:00,5,2
��Ƃ�̍L��,��������,2022/8/23,0:00,4,1
��Ƃ�̍L��,��������,2022/8/23,1:00,7,0
��Ƃ�̍L��,��������,2022/8/23,2:00,2,1
��Ƃ�̍L��,��������,2022/8/23,3:00,3,0
��Ƃ�̍L��,��������,2022/8/23,4:00,2,1
��Ƃ�̍L��,��������,2022/8/23,5:00,11,0
��Ƃ�̍L��,��������,2022/8/23,6:00,17,5
��Ƃ�̍L��,��������,2022/8/23,7:00,36,11
��Ƃ�̍L��,��������,2022/8/23,8:00,15,30
��Ƃ�̍L��,��������,2022/8/23,9:00,33,24
��Ƃ�̍L��,��������,2022/8/23,10:00,55,33
��Ƃ�̍L��,��������,2022/8/23,11:00,61,37
��Ƃ�̍L��,��������,2022/8/23,12:00,82,33
��Ƃ�̍L��,��������,2022/8/23,13:00,66,29
��Ƃ�̍L��,��������,2022/8/23,14:00,58,20
��Ƃ�̍L��,��������,2022/8/23,15:00,50,17
��Ƃ�̍L��,��������,2022/8/23,16:00,69,18
��Ƃ�̍L��,��������,2022/8/23,17:00,67,32
��Ƃ�̍L��,��������,2022/8/23,18:00,41,22
��Ƃ�̍L��,��������,2022/8/23,19:00,15,19
��Ƃ�̍L��,��������,2022/8/23,20:00,29,11
��Ƃ�̍L��,��������,2022/8/23,21:00,22,8
��Ƃ�̍L��,��������,2022/8/23,22:00,7,1
��Ƃ�̍L��,��������,2022/8/23,23:00,5,3
��Ƃ�̍L��,��������,2022/8/24,0:00,11,1
��Ƃ�̍L��,��������,2022/8/24,1:00,5,2
��Ƃ�̍L��,��������,2022/8/24,2:00,6,3
��Ƃ�̍L��,��������,2022/8/24,3:00,3,3
��Ƃ�̍L��,��������,2022/8/24,4:00,1,2
��Ƃ�̍L��,��������,2022/8/24,5:00,10,0
��Ƃ�̍L��,��������,2022/8/24,6:00,18,8
��Ƃ�̍L��,��������,2022/8/24,7:00,30,7
��Ƃ�̍L��,��������,2022/8/24,8:00,39,27
��Ƃ�̍L��,��������,2022/8/24,9:00,43,12
��Ƃ�̍L��,��������,2022/8/24,10:00,55,30
��Ƃ�̍L��,��������,2022/8/24,11:00,59,31
��Ƃ�̍L��,��������,2022/8/24,12:00,50,23
��Ƃ�̍L��,��������,2022/8/24,13:00,58,32
��Ƃ�̍L��,��������,2022/8/24,14:00,55,39
��Ƃ�̍L��,��������,2022/8/24,15:00,50,26
��Ƃ�̍L��,��������,2022/8/24,16:00,58,28
��Ƃ�̍L��,��������,2022/8/24,17:00,59,27
��Ƃ�̍L��,��������,2022/8/24,18:00,58,19
��Ƃ�̍L��,��������,2022/8/24,19:00,23,20
��Ƃ�̍L��,��������,2022/8/24,20:00,15,9
��Ƃ�̍L��,��������,2022/8/24,21:00,17,14
��Ƃ�̍L��,��������,2022/8/24,22:00,12,12
��Ƃ�̍L��,��������,2022/8/24,23:00,10,4
��Ƃ�̍L��,��������,2022/8/25,0:00,1,4
��Ƃ�̍L��,��������,2022/8/25,1:00,4,2
��Ƃ�̍L��,��������,2022/8/25,2:00,5,5
��Ƃ�̍L��,��������,2022/8/25,3:00,4,2
��Ƃ�̍L��,��������,2022/8/25,4:00,5,1
��Ƃ�̍L��,��������,2022/8/25,5:00,8,3
��Ƃ�̍L��,��������,2022/8/25,6:00,24,5
��Ƃ�̍L��,��������,2022/8/25,7:00,26,13
��Ƃ�̍L��,��������,2022/8/25,8:00,23,38
��Ƃ�̍L��,��������,2022/8/25,9:00,39,25
��Ƃ�̍L��,��������,2022/8/25,10:00,51,39
��Ƃ�̍L��,��������,2022/8/25,11:00,54,20
��Ƃ�̍L��,��������,2022/8/25,12:00,70,25
��Ƃ�̍L��,��������,2022/8/25,13:00,88,27
��Ƃ�̍L��,��������,2022/8/25,14:00,48,18
��Ƃ�̍L��,��������,2022/8/25,15:00,49,13
��Ƃ�̍L��,��������,2022/8/25,16:00,35,23
��Ƃ�̍L��,��������,2022/8/25,17:00,66,25
��Ƃ�̍L��,��������,2022/8/25,18:00,40,26
��Ƃ�̍L��,��������,2022/8/25,19:00,39,13
��Ƃ�̍L��,��������,2022/8/25,20:00,20,10
��Ƃ�̍L��,��������,2022/8/25,21:00,17,13
��Ƃ�̍L��,��������,2022/8/25,22:00,27,8
��Ƃ�̍L��,��������,2022/8/25,23:00,8,5
��Ƃ�̍L��,��������,2022/8/26,0:00,13,5
��Ƃ�̍L��,��������,2022/8/26,1:00,6,2
��Ƃ�̍L��,��������,2022/8/26,2:00,3,0
��Ƃ�̍L��,��������,2022/8/26,3:00,6,0